FW5467 Weather Reports


time (UTC)temp
C
wind
direction
speed
KPH
gust
KPH
rain 1hr
cm
rain 24hr
cm
rain mn
cm
humidity
%
barometer
mb
20260506114118 16 196 1.6 4.8 0.00 0.00 0.00 79 1007.9
20260506113545 16 165 1.6 3.2 0.00 0.00 0.00 79 1007.9
20260506113011 16 246 0.0 3.2 0.00 0.00 0.00 79 1007.9
20260506112440 16 189 1.6 4.8 0.00 0.00 0.00 78 1007.9
20260506111908 16 180 1.6 4.8 0.00 0.00 0.00 78 1007.8
20260506111408 16 185 0.0 4.8 0.00 0.00 0.00 78 1007.7
20260506111140 16 174 0.0 9.7 0.00 0.00 0.00 78 1007.5
20260506110336 16 187 0.0 9.7 0.00 0.00 0.00 78 1007.5
20260506105836 16 246 1.6 8.0 0.00 0.00 0.00 77 1007.5
20260506105336 16 170 1.6 9.7 0.00 0.00 0.00 77 1007.5
20260506104836 16 208 0.0 9.7 0.00 0.00 0.00 77 1007.5
20260506104335 16 172 0.0 3.2 0.00 0.00 0.00 76 1007.4
20260506103803 16 177 1.6 9.7 0.00 0.00 0.00 76 1007.5
20260506103302 16 218 1.6 14.5 0.00 0.00 0.00 75 1007.5
20260506102803 16 180 1.6 14.5 0.00 0.00 0.00 75 1007.5
20260506102305 16 170 0.0 6.4 0.00 0.00 0.00 75 1007.6
20260506101730 16 179 0.0 6.4 0.00 0.00 0.00 74 1007.6
20260506101230 16 195 1.6 9.7 0.00 0.00 0.00 74 1007.6
20260506100731 16 200 1.6 9.7 0.00 0.00 0.00 73 1007.5
20260506100230 16 183 0.0 8.0 0.00 0.00 0.00 73 1007.5
20260506095730 16 188 0.0 4.8 0.00 0.00 0.00 73 1007.3
20260506095157 16 196 0.0 1.6 0.00 0.00 0.00 73 1007.4
20260506094929 16 177 0.0 1.6 0.00 0.00 0.00 72 1007.3
20260506094157 16 201 0.0 1.6 0.00 0.00 0.00 72 1007.2
20260506093928 16 168 0.0 3.2 0.00 0.00 0.00 72 1007.3
20260506093429 16 170 0.0 3.2 0.00 0.00 0.00 72 1007.3
20260506092928 16 210 1.6 1.6 0.00 0.00 0.00 71 1007.3
20260506092157 16 170 0.0 9.7 0.00 0.00 0.00 71 1007.1
20260506091657 16 190 0.0 6.4 0.00 0.00 0.00 70 1007.6
20260506091157 16 182 0.0 6.4 0.00 0.00 0.00 70 1007.7
20260506090657 16 187 0.0 6.4 0.00 0.00 0.00 70 1007.7
20260506090427 16 213 0.0 6.4 0.00 0.00 0.00 70 1007.5
20260506085625 16 185 0.0 6.4 0.00 0.00 0.00 69 1007.3
20260506085125 16 235 0.0 6.4 0.00 0.00 0.00 69 1007.4
20260506084625 16 199 1.6 11.3 0.00 0.00 0.00 69 1007.4
20260506084053 16 189 1.6 11.3 0.00 0.00 0.00 68 1007.5
20260506083553 16 192 1.6 14.5 0.00 0.00 0.00 68 1007.5
20260506083251 16 169 0.0 14.5 0.00 0.00 0.00 68 1007.6
20260506082521 16 178 0.0 4.8 0.00 0.00 0.00 67 1007.6
20260506082020 16 184 0.0 0.0 0.00 0.00 0.00 66 1007.6
20260506081448 16 185 0.0 8.0 0.00 0.00 0.00 66 1007.7
20260506080948 17 168 0.0 8.0 0.00 0.00 0.00 66 1007.8
20260506080647 17 189 1.6 8.0 0.00 0.00 0.00 65 1007.9
20260506072709 17 170 3.2 16.1 0.00 0.00 0.00 63 1008.1
20260506072138 17 172 1.6 16.1 0.00 0.00 0.00 63 1008.0
20260506071606 17 176 1.6 4.8 0.00 0.00 0.00 63 1008.1
20260506071032 17 190 1.6 11.3 0.00 0.00 0.00 63 1008.1
20260506070459 17 173 0.0 9.7 0.00 0.00 0.00 63 1008.1
20260506062043 17 164 0.0 6.4 0.00 0.00 0.00 62 1008.6
20260506061510 17 176 0.0 1.6 0.00 0.00 0.00 62 1008.6
20260506060939 17 175 0.0 3.2 0.00 0.00 0.00 61 1008.7
20260506060637 17 168 0.0 3.2 0.00 0.00 0.00 62 1008.7
20260506051125 18 180 0.0 3.2 0.00 0.00 0.00 59 1008.9
20260506050625 18 216 0.0 3.2 0.00 0.00 0.00 58 1009.0
20260506050325 18 178 0.0 3.2 0.00 0.00 0.00 58 1009.0
20260506045021 18 177 0.0 14.5 0.00 0.00 0.00 58 1009.0
20260506044448 18 162 0.0 1.6 0.00 0.00 0.00 58 1009.3
20260506043948 18 170 0.0 1.6 0.00 0.00 0.00 58 1009.2
20260506043416 18 166 0.0 1.6 0.00 0.00 0.00 58 1009.2
20260506042916 18 192 0.0 1.6 0.00 0.00 0.00 58 1009.2
20260506042648 18 192 0.0 1.6 0.00 0.00 0.00 58 1009.3
20260506041916 18 203 0.0 1.6 0.00 0.00 0.00 58 1009.3
20260506041615 18 248 0.0 4.8 0.00 0.00 0.00 57 1009.3
20260506041044 18 178 0.0 6.4 0.00 0.00 0.00 57 1009.3
20260506040313 18 199 0.0 6.4 0.00 0.00 0.00 57 1009.3
20260506035813 18 223 0.0 4.8 0.00 0.00 0.00 57 1009.4
20260506035313 18 173 0.0 0.0 0.00 0.00 0.00 56 1009.4
20260506034742 18 184 0.0 0.0 0.00 0.00 0.00 56 1009.4
20260506034211 18 176 0.0 3.2 0.00 0.00 0.00 55 1009.4
20260506033910 19 180 0.0 3.2 0.00 0.00 0.00 54 1009.3
20260506033108 19 177 0.0 1.6 0.00 0.00 0.00 54 1009.3
20260506032535 19 178 1.6 11.3 0.00 0.00 0.00 53 1009.3
20260506032002 19 173 1.6 11.3 0.00 0.00 0.00 52 1009.2
20260506031430 19 190 0.0 4.8 0.00 0.00 0.00 52 1009.3
20260506030858 20 183 0.0 3.2 0.00 0.00 0.00 52 1009.3
20260506030328 20 181 0.0 3.2 0.00 0.00 0.00 51 1009.3
20260506025756 20 233 0.0 3.2 0.00 0.00 0.00 51 1009.5
20260506025456 20 182 0.0 1.6 0.00 0.00 0.00 50 1009.5
20260506024654 20 174 0.0 0.0 0.00 0.00 0.00 50 1009.6
20260506024122 20 170 0.0 1.6 0.00 0.00 0.00 50 1009.6
20260506023549 20 215 0.0 9.7 0.00 0.00 0.00 50 1009.6
20260506023018 20 204 1.6 12.9 0.00 0.00 0.00 49 1009.6
20260506022518 20 179 0.0 12.9 0.00 0.00 0.00 50 1009.6
20260506022018 20 176 0.0 1.6 0.00 0.00 0.00 49 1009.6
20260506021518 20 172 0.0 0.0 0.00 0.00 0.00 50 1009.6
20260506021018 21 182 0.0 6.4 0.00 0.00 0.00 50 1009.7
20260506020749 21 215 0.0 6.4 0.00 0.00 0.00 49 1009.6
20260506015945 21 223 0.0 0.0 0.00 0.00 0.00 49 1009.5
20260506015822 21 247 1.6 17.7 0.00 0.00 0.00 49 1009.4
20260506015716 21 182 0.0 3.2 0.00 0.00 0.00 49 1009.5
20260506014446 21 220 1.6 17.7 0.00 0.00 0.00 49 1009.5
20260506013946 21 234 1.6 19.3 0.00 0.00 0.00 49 1009.4
20260506013446 21 184 3.2 19.3 0.00 0.00 0.00 48 1009.4
20260506012914 21 255 3.2 16.1 0.00 0.00 0.00 49 1009.3
20260506012414 21 165 1.6 6.4 0.00 0.00 0.00 49 1009.3
20260506011914 21 177 1.6 11.3 0.00 0.00 0.00 49 1009.4
20260506011613 21 188 1.6 16.1 0.00 0.00 0.00 49 1009.2
20260506011010 21 176 1.6 3.2 0.00 0.00 0.00 49 1009.0
20260506010845 21 151 1.6 16.1 0.00 0.00 0.00 49 1009.0
20260506005706 21 168 1.6 1.6 0.00 0.00 0.00 49 1008.7
20260506005134 21 176 0.0 4.8 0.00 0.00 0.00 49 1008.7
20260506004634 21 197 1.6 6.4 0.00 0.00 0.00 49 1008.7
20260506004134 21 156 1.6 6.4 0.00 0.00 0.00 49 1008.6
20260506003634 21 196 1.6 4.8 0.00 0.00 0.00 48 1008.6
20260506003101 21 197 1.6 4.8 0.00 0.00 0.00 48 1008.6
20260506002529 21 193 0.0 4.8 0.00 0.00 0.00 47 1008.6
20260506001956 21 171 0.0 1.6 0.00 0.00 0.00 47 1008.7
20260506001425 22 166 0.0 0.0 0.00 0.00 0.00 46 1008.7
20260506000855 22 184 0.0 3.2 0.00 0.00 0.00 46 1008.7
20260506000323 22 259 0.0 3.2 0.00 0.00 0.00 45 1008.5
20260505235751 22 177 0.0 3.2 0.00 0.00 0.00 46 1008.5
20260505235450 22 203 1.6 19.3 0.00 0.00 0.00 46 1008.6
20260505234649 22 176 0.0 19.3 0.00 0.00 0.00 45 1008.3
20260505234116 22 229 0.0 1.6 0.00 0.00 0.00 46 1008.4
20260505233543 22 178 0.0 6.4 0.00 0.00 0.00 46 1008.4
20260505233011 22 208 0.0 4.8 0.00 0.00 0.00 46 1008.4
20260505232439 22 254 0.0 4.8 0.00 0.00 0.00 46 1008.4
20260505231907 22 177 0.0 3.2 0.00 0.00 0.00 46 1008.3
20260505231606 22 178 0.0 3.2 0.00 0.00 0.00 46 1008.4
20260505230803 22 247 0.0 0.0 0.00 0.00 0.00 46 1008.3
20260505230231 22 196 0.0 0.0 0.00 0.00 0.00 45 1008.3
20260505225731 22 195 0.0 0.0 0.00 0.00 0.00 44 1008.3
20260505225231 22 185 0.0 3.2 0.00 0.00 0.00 44 1008.2
20260505224700 22 239 0.0 3.2 0.00 0.00 0.00 43 1008.2
20260505224127 23 245 0.0 0.0 0.00 0.00 0.00 43 1008.1
20260505223555 23 182 0.0 0.0 0.00 0.00 0.00 43 1008.2
20260505223023 23 179 0.0 0.0 0.00 0.00 0.00 42 1008.1
20260505222524 23 235 0.0 8.0 0.00 0.00 0.00 42 1008.1
20260505221950 23 228 1.6 8.0 0.00 0.00 0.00 42 1008.0
20260505221450 23 245 1.6 6.4 0.00 0.00 0.00 42 1007.9
20260505221150 23 190 3.2 14.5 0.00 0.00 0.00 41 1008.0
20260505220418 23 199 4.8 20.9 0.00 0.00 0.00 41 1008.2
20260505220149 23 226 4.8 20.9 0.00 0.00 0.00 39 1008.1
20260505215419 23 259 1.6 9.7 0.00 0.00 0.00 39 1008.0
20260505214846 24 248 1.6 1.6 0.00 0.00 0.00 39 1007.9
20260505214314 24 222 1.6 14.5 0.00 0.00 0.00 38 1008.0
20260505214245 24 165 3.2 14.5 0.00 0.00 0.00 39 1007.8
20260505213211 24 205 3.2 8.0 0.00 0.00 0.00 39 1007.8
20260505212942 24 246 3.2 17.7 0.00 0.00 0.00 38 1007.7
20260505212141 24 197 3.2 19.3 0.00 0.00 0.00 38 1007.6
20260505211611 24 239 4.8 19.3 0.00 0.00 0.00 40 1007.4
20260505211040 24 249 6.4 16.1 0.00 0.00 0.00 38 1007.5
20260505210508 24 168 4.8 16.1 0.00 0.00 0.00 38 1007.4
20260505205938 24 168 3.2 9.7 0.00 0.00 0.00 38 1007.6
20260505205407 24 176 1.6 9.7 0.00 0.00 0.00 37 1007.4
20260505204835 25 247 3.2 16.1 0.00 0.00 0.00 38 1007.4
20260505204303 25 176 4.8 20.9 0.00 0.00 0.00 37 1007.5
20260505203732 25 222 4.8 22.5 0.00 0.00 0.00 36 1007.5
20260505203231 25 235 3.2 22.5 0.00 0.00 0.00 36 1007.5
20260505202701 25 166 3.2 9.7 0.00 0.00 0.00 36 1007.7
20260505202130 25 185 4.8 17.7 0.00 0.00 0.00 37 1007.5
20260505201630 25 247 6.4 20.9 0.00 0.00 0.00 37 1007.4
20260505201056 25 224 6.4 20.9 0.00 0.00 0.00 36 1007.5
20260505200557 25 247 8.0 25.7 0.00 0.00 0.00 37 1007.5
20260505200057 25 167 9.7 25.7 0.00 0.00 0.00 36 1007.7
20260505195556 25 274 6.4 22.5 0.00 0.00 0.00 36 1007.7
20260505195056 26 170 4.8 19.3 0.00 0.00 0.00 38 1007.8
20260505194524 26 215 4.8 20.9 0.00 0.00 0.00 38 1007.8
20260505193951 26 174 4.8 20.9 0.00 0.00 0.00 38 1007.9
20260505193451 25 193 6.4 25.7 0.00 0.00 0.00 39 1008.1
20260505192951 25 171 6.4 25.7 0.00 0.00 0.00 39 1008.1
20260505192650 26 220 3.2 16.1 0.00 0.00 0.00 39 1008.0
20260505191919 26 185 4.8 16.1 0.00 0.00 0.00 38 1008.1
20260505191420 26 272 4.8 20.9 0.00 0.00 0.00 38 1008.1
20260505191150 26 158 4.8 20.9 0.00 0.00 0.00 37 1008.1
20260505190349 26 217 3.2 17.7 0.00 0.00 0.00 39 1008.2
20260505185816 25 245 4.8 27.4 0.00 0.00 0.00 39 1008.3
20260505185515 25 158 6.4 25.7 0.00 0.00 0.00 38 1008.3
20260505184712 26 163 4.8 16.1 0.00 0.00 0.00 36 1008.5
20260505184413 26 253 4.8 16.1 0.00 0.00 0.00 38 1008.6
20260505183610 26 230 3.2 27.4 0.00 0.00 0.00 36 1008.6
20260505183038 26 243 4.8 27.4 0.00 0.00 0.00 38 1008.5
20260505182505 26 161 4.8 17.7 0.00 0.00 0.00 38 1008.6
20260505182436 26 182 3.2 17.7 0.00 0.00 0.00 38 1008.6
20260505181634 26 296 3.2 12.9 0.00 0.00 0.00 40 1008.6
20260505180831 26 213 4.8 22.5 0.00 0.00 0.00 39 1008.5
20260505180531 27 223 3.2 19.3 0.00 0.00 0.00 37 1009.0
20260505175730 27 253 3.2 19.3 0.00 0.00 0.00 37 1009.3
20260505175157 27 245 1.6 16.1 0.00 0.00 0.00 38 1009.0
20260505174625 27 184 3.2 17.7 0.00 0.00 0.00 39 1009.2
20260505174355 26 217 4.8 17.7 0.00 0.00 0.00 39 1008.9
20260505173625 26 177 3.2 11.3 0.00 0.00 0.00 38 1009.0
20260505173125 27 220 1.6 8.0 0.00 0.00 0.00 39 1009.2
20260505172625 26 196 3.2 16.1 0.00 0.00 0.00 39 1009.4
20260505172126 26 231 3.2 16.1 0.00 0.00 0.00 40 1009.3
20260505171552 26 252 3.2 17.7 0.00 0.00 0.00 38 1009.3
20260505171053 26 209 4.8 27.4 0.00 0.00 0.00 39 1009.4
20260505170823 26 209 4.8 27.4 0.00 0.00 0.00 41 1009.3
20260505170323 26 168 3.2 17.7 0.00 0.00 0.00 40 1009.4
20260505165519 27 193 4.8 17.7 0.00 0.00 0.00 41 1009.6
20260505165020 26 231 3.2 17.7 0.00 0.00 0.00 42 1009.6
20260505164519 26 217 3.2 6.4 0.00 0.00 0.00 46 1009.5
20260505164019 25 236 3.2 16.1 0.00 0.00 0.00 44 1009.5
20260505163519 25 211 3.2 11.3 0.00 0.00 0.00 43 1009.7
20260505163218 25 230 4.8 11.3 0.00 0.00 0.00 44 1009.8
20260505162447 26 178 1.6 11.3 0.00 0.00 0.00 45 1010.0
20260505161948 26 225 1.6 11.3 0.00 0.00 0.00 44 1010.1
20260505161447 25 232 3.2 16.1 0.00 0.00 0.00 45 1010.0
20260505160947 25 203 3.2 25.7 0.00 0.00 0.00 45 1010.1
20260505160447 25 173 4.8 27.4 0.00 0.00 0.00 44 1010.0
20260505160218 25 200 4.8 27.4 0.00 0.00 0.00 45 1010.0
20260505153312 26 238 3.2 14.5 0.00 0.00 0.00 44 1010.7
20260505152811 26 217 3.2 19.3 0.00 0.00 0.00 43 1010.8
20260505152241 26 165 3.2 19.3 0.00 0.00 0.00 42 1010.8
20260505151708 25 236 4.8 19.3 0.00 0.00 0.00 44 1010.7
20260505151137 25 253 3.2 19.3 0.00 0.00 0.00 45 1010.9
20260505150637 25 202 3.2 14.5 0.00 0.00 0.00 43 1010.9
20260505150106 26 220 1.6 14.5 0.00 0.00 0.00 42 1010.9
20260505140542 23 178 1.6 19.3 0.00 0.00 0.00 51 1010.8
20260505130231 21 131 0.0 1.6 0.00 0.00 0.00 56 1010.9
20260505124700 19 151 0.0 3.2 0.00 0.00 0.00 60 1010.6
20260505124159 19 161 0.0 1.6 0.00 0.00 0.00 62 1010.5
20260505123658 18 244 0.0 4.8 0.00 0.00 0.00 62 1010.7
20260505123159 18 230 0.0 4.8 0.00 0.00 0.00 62 1010.7
20260505122930 18 195 0.0 0.0 0.00 0.00 0.00 61 1010.6
20260505122159 18 165 0.0 0.0 0.00 0.00 0.00 65 1010.6
20260505121629 17 166 0.0 0.0 0.00 0.00 0.00 66 1010.4
20260505121132 17 165 0.0 1.6 0.00 0.00 0.00 65 1010.4
20260505121128 17 166 0.0 1.6 0.00 0.00 0.00 67 1010.5
20260505120401 17 170 0.0 0.0 0.00 0.00 0.00 65 1010.4
20260505115628 16 143 0.0 0.0 0.00 0.00 0.00 68 1010.3
20260505115056 16 200 0.0 1.6 0.00 0.00 0.00 68 1010.4